logo
App data

Weird Hero

Store | Hub | SteamDB | Site
Developer: Snail-Ninja Studio Publisher: Snail-Ninja Studio
Genre: Action, Indie
Languages: English, Russian
Tags: Action (45), Indie (32), Platformer (25), Comedy (22), Shoot 'Em Up (21), Shooter (21), Side Scroller (20), Classic (17), 2D (11), Singleplayer (10), Short (9)
Category: Single-player, Steam Achievements, Steam Trading Cards, Partial Controller Support
Release date: Nov 18, 2016
Price: $2.99
Score rank: 70% Userscore: 90% Old userscore: 83%
Owners: 0 .. 20,000
Followers: 346
Peak concurrent players yesterday: 1
Playtime total: 02:21 (average) 02:53 (median)

Steam Spy is still in beta, so expect major bugs.

Owners data:

Access restricted.

This feature is only available to users with special access rights. Sorry.

If you want to proceed, you need to register or log in first and then back Steam Spy on Patreon. Look for Indie or Pro pledge.

Don't forget to use the same email as on Steam Spy!

Audience in 2 weeks:

Access restricted.

This feature is only available to users with special access rights. Sorry.

If you want to proceed, you need to register or log in first and then back Steam Spy on Patreon. Look for Indie or Pro pledge.

Don't forget to use the same email as on Steam Spy!

Peak daily concurrent players:

CCU data courtesy of SteamDB. Used with permission.

Hourly concurrent players:

YouTube:

The views data is based on top 50 videos uploaded last week. Actual number of views might be more than the number shown.

The displayed number of videos uploaded yesterday is limited to 50, so if there were more videos uploaded, the number will still show 50.

If the game has commonly used word as its name (like "FEAR" or "Volume") its number of Youtube views might be wrong.

Games similar to this one:

# Game Release date
Price
Score rank
(Userscore / Metascore)
Owners
Players
Playtime (Median)
1 Militia Dec 2, 2015 $2.9998% (98%)0 .. 20,0000%00:00 (00:00)
2 Little Big Adventure 2 Oct 20, 2015 $3.9998% (98%)20,000 .. 50,0000%00:00 (00:00)
3 Dungeon Warfare Nov 4, 2015 $9.9996% (97%)20,000 .. 50,0000%00:00 (00:00)
4 Spider: Rite of the Shrouded Moon Aug 6, 2015 $9.99N/A (N/A)20,000 .. 50,0000%00:00 (00:00)
5 Seven Kingdoms: Ancient Adversaries Mar 22, 2016 $5.99N/A (N/A)0 .. 20,0000%00:00 (00:00)
6 Voodoo Vince: Remastered Apr 17, 2017 $14.99N/A (N/A/63%)0 .. 20,0000%00:00 (00:00)
7 Defend The Highlands Nov 6, 2015 $9.99N/A (N/A)100,000 .. 200,0002%01:12 (01:35)
8 Imperium Galactica Jan 19, 2017 $4.99N/A (N/A)0 .. 20,0000%00:00 (00:00)
9 Hegemony Gold: Wars of Ancient Greece Mar 30, 2012 $14.99N/A (N/A)20,000 .. 50,0000%00:00 (00:00)
10 Templar Battleforce Sep 21, 2015 $9.9990% (95%)20,000 .. 50,0000%00:00 (00:00)
11 Outcast 1.1 Dec 18, 2014 $5.99N/A (N/A)20,000 .. 50,0000%00:00 (00:00)
12 Darknet Jun 8, 2017 $7.49N/A (N/A)0 .. 20,0005.88%03:13 (01:04)
13 Chicken Invaders 2 Mar 4, 2016 $3.99N/A (N/A)0 .. 20,0000%00:00 (00:00)
14 PixelJunk Shooter Nov 11, 2013 $8.99N/A (N/A/73%)100,000 .. 200,0000%00:00 (00:00)
15 Audio Arena Jul 25, 2016 $2.79N/A (N/A)0 .. 20,0000%00:00 (00:00)
16 Handsome Mr. Frog Aug 8, 2016 $0.99N/A (N/A)0 .. 20,0000%00:00 (00:00)
17 Neon Chrome Apr 28, 2016 $14.9987% (94%/74%)200,000 .. 500,0000.64%00:10 (00:03)
18 ESCHATOS Sep 18, 2015 $14.99N/A (N/A)0 .. 20,0000%00:00 (00:00)
19 Majesty Gold HD Sep 4, 2009 $9.99N/A (N/A)100,000 .. 200,0000%00:00 (00:00)
20 Kalimba Apr 22, 2015 $9.9987% (94%/81%)0 .. 20,0000%00:00 (00:00)
21 Star Trek: Judgment Rites May 8, 2015 $9.99N/A (N/A)0 .. 20,0000%00:00 (00:00)
22 Stick it to The Man! Dec 13, 2013 $7.99N/A (N/A/83%)50,000 .. 100,0000%00:00 (00:00)
23 Flywrench Aug 24, 2015 $6.99N/A (N/A)0 .. 20,0000%00:00 (00:00)
24 Supercharged Robot VULKAISER Jun 4, 2015 $4.9987% (94%)20,000 .. 50,0000%00:00 (00:00)
25 Gold Rush! Classic Jul 25, 2014 $2.99N/A (N/A)200,000 .. 500,0000.51%01:41 (01:07)
26 Run or Die Dec 11, 2014 $4.9987% (94%)0 .. 20,0000%00:00 (00:00)
27 Super Cyborg Jul 8, 2015 $4.9983% (93%)20,000 .. 50,0000%00:00 (00:00)
28 Ys VI: The Ark of Napishtim Apr 28, 2015 $19.9983% (93%)50,000 .. 100,0000%00:00 (00:00)
29 Anarcute Jul 12, 2016 $14.99N/A (N/A/79%)0 .. 20,0008.33%00:14 (00:04)
30 Pharaoh Rebirth+ Mar 17, 2016 $9.99N/A (N/A)0 .. 20,0000%00:00 (00:00)
31 Kick Ass Commandos Nov 17, 2016 $9.99N/A (N/A)20,000 .. 50,0000%00:00 (00:00)
32 RIVE: Wreck, Hack, Die, Retry! Sep 13, 2016 $14.99N/A (N/A)200,000 .. 500,0000%00:00 (00:00)
33 Adventure in the Tower of Flight Dec 23, 2015 $4.99N/A (N/A)0 .. 20,0000%00:00 (00:00)
34 Eufloria HD Oct 14, 2014 $14.9983% (93%)200,000 .. 500,0001.06%00:09 (00:03)
35 Major Mayhem Feb 24, 2014 $4.99N/A (N/A)20,000 .. 50,0000%00:00 (00:00)
36 Bleed Jul 3, 2013 $1.69N/A (N/A)100,000 .. 200,0000%00:00 (00:00)
37 Ittle Dew Jul 23, 2013 $9.99N/A (N/A/67%)100,000 .. 200,0000%00:00 (00:00)
38 Below Kryll Sep 7, 2015 $0.99N/A (N/A)0 .. 20,0000%00:00 (00:00)
39 The Juicer Sep 11, 2015 $0.99N/A (N/A)20,000 .. 50,0000%00:00 (00:00)
40 Mad Bullets Jun 10, 2016 $1.99N/A (N/A)0 .. 20,0003.85%19:13 (06:24)
41 Death Ray Manta SE Sep 17, 2015 $1.99N/A (N/A)50,000 .. 100,0000%00:00 (00:00)
42 Battle Academy 2: Eastern Front Sep 12, 2014 $39.99N/A (N/A/78%)0 .. 20,0000%00:00 (00:00)
43 Tallowmere Mar 3, 2015 $3.99N/A (N/A)20,000 .. 50,0003.45%00:01 (00:00)
44 Wars and Warriors: Joan of Arc Sep 3, 2015 $6.99N/A (N/A/60%)0 .. 20,0000%00:00 (00:00)
45 Super Trench Attack! Jul 24, 2014 $4.9978% (92%)100,000 .. 200,0000%00:00 (00:00)
46 Knightmare Tower Jun 16, 2014 $3.99N/A (N/A)0 .. 20,0000%00:00 (00:00)
47 Blue Estate The Game Apr 8, 2015 $12.99N/A (N/A/59%)50,000 .. 100,0001.06%00:01 (00:00)
48 Ace of Seafood Apr 8, 2016 $11.99N/A (N/A)0 .. 20,0000%00:00 (00:00)
49 Counter Spell Oct 5, 2015 $9.99N/A (N/A)0 .. 20,0000%00:00 (00:00)
50 Earth Defense Force: Insect Armageddon Dec 14, 2011 $9.99N/A (N/A/69%)50,000 .. 100,0000%00:00 (00:00)
51 Dandy: Or a Brief Glimpse Into the Life of the Candy Alchemist Aug 4, 2015 $9.99N/A (N/A)0 .. 20,0000%00:00 (00:00)
52 Miracle Fly Oct 26, 2015 $7.99N/A (N/A)20,000 .. 50,0000%00:00 (00:00)
53 Clash of Puppets Dec 16, 2014 $4.99N/A (N/A)0 .. 20,0000%00:00 (00:00)
54 Angry Video Game Nerd II: ASSimilation Mar 29, 2016 $9.99N/A (N/A)20,000 .. 50,0000%00:00 (00:00)
55 Swords and Soldiers HD Dec 2, 2010 $9.9973% (91%)200,000 .. 500,0000%00:00 (00:00)
56 Valley Aug 24, 2016 $19.9973% (91%)100,000 .. 200,0001.59%00:46 (00:15)
57 Momodora III Jul 1, 2014 $1.99N/A (N/A)50,000 .. 100,0001.96%01:02 (00:20)
58 Demons with Shotguns Apr 25, 2016 $9.99N/A (N/A)0 .. 20,0003.03%03:02 (01:00)
59 Skulls of the Shogun Jul 29, 2013 $9.99N/A (N/A/72%)200,000 .. 500,0000%00:00 (00:00)
60 Khet 2.0 Oct 1, 2014 $9.99N/A (N/A)50,000 .. 100,0000%00:00 (00:00)
61 Near Death Aug 2, 2016 $14.99N/A (N/A/70%)0 .. 20,0000%00:00 (00:00)
62 Armed with Wings: Rearmed Jun 1, 2017 $9.99N/A (N/A)20,000 .. 50,0000%00:00 (00:00)
63 Great Big War Game Aug 28, 2012 $6.99N/A (N/A)0 .. 20,0000%00:00 (00:00)
64 Warhammer 40,000: Dawn of War Winter Assault Aug 7, 2007 $12.99N/A (N/A)1,000,000 .. 2,000,0000.54%00:01 (00:00)
65 Planet of the Eyes Aug 24, 2015 $9.9969% (90%/66%)50,000 .. 100,0000%00:00 (00:00)
66 Warrior Kings: Battles May 6, 2014 $9.99N/A (N/A/64%)0 .. 20,0000%00:00 (00:00)
67 Explosionade Sep 23, 2015 $0.99N/A (N/A)20,000 .. 50,0000%00:00 (00:00)
68 Fort Meow Jun 24, 2015 $7.99N/A (N/A)0 .. 20,0000%00:00 (00:00)
69 Headlander Jul 25, 2016 $19.99N/A (N/A/74%)100,000 .. 200,0001.2%04:02 (01:20)
70 Wild Guns Reloaded Jul 11, 2017 $19.99N/A (N/A)0 .. 20,00025%00:03 (00:01)
71 Darksiders Sep 23, 2010 N/AN/A (N/A/83%)20,000 .. 50,0000%00:00 (00:00)
72 Superstatic Sep 15, 2015 $4.99N/A (N/A)0 .. 20,0000%00:00 (00:00)
73 Silent Storm Gold Edition Oct 2, 2013 $9.99N/A (N/A/83%)100,000 .. 200,0000%00:00 (00:00)
74 Death's Hangover Jan 20, 2017 $4.99N/A (N/A)50,000 .. 100,0001.59%04:51 (01:37)
75 Apocalypse: Party's Over May 30, 2016 $4.99N/A (N/A)0 .. 20,0000%00:00 (00:00)
76 Lethe - Episode One Aug 1, 2016 $14.99N/A (N/A)0 .. 20,0000%00:00 (00:00)
77 Spectromancer Feb 11, 2009 $9.99N/A (N/A)20,000 .. 50,0000%00:00 (00:00)
78 Sneaky Sneaky Nov 12, 2014 $4.99N/A (N/A/63%)20,000 .. 50,0000%00:00 (00:00)
79 Reverse Crawl Sep 24, 2015 $5.99N/A (N/A)50,000 .. 100,0000%00:00 (00:00)
80 CastleStorm Jul 29, 2013 $9.99N/A (N/A/73%)200,000 .. 500,0000%00:00 (00:00)
81 Avoid - Sensory Overload Apr 8, 2014 $4.99N/A (N/A)0 .. 20,0000%00:00 (00:00)
82 Zombo Buster Rising Oct 2, 2016 $1.99N/A (N/A)0 .. 20,0000%00:00 (00:00)
83 MoonBase Commander Feb 6, 2014 $5.99N/A (N/A/77%)20,000 .. 50,0000%00:00 (00:00)
84 Codename: Panzers, Phase Two Feb 18, 2016 $14.99N/A (N/A/80%)20,000 .. 50,0000%00:00 (00:00)
85 Blacksea Odyssey Jun 1, 2016 $9.99N/A (N/A/74%)20,000 .. 50,0000%00:00 (00:00)
86 The Way May 20, 2016 $14.9963% (88%/67%)20,000 .. 50,0000%00:00 (00:00)
87 Tcheco in the Castle of Lucio Jun 22, 2015 $0.9963% (88%)50,000 .. 100,0000%00:00 (00:00)
88 Syrian Warfare Feb 21, 2017 $14.9963% (88%)20,000 .. 50,00014.81%02:06 (02:17)
89 Greed Corp Dec 10, 2010 $9.99N/A (N/A/76%)200,000 .. 500,0001.1%00:24 (00:08)
90 Viking Squad Oct 4, 2016 $14.99N/A (N/A)0 .. 20,0000%00:00 (00:00)
91 Battlepillars Gold Edition Apr 28, 2014 $4.99N/A (N/A)20,000 .. 50,0000%00:00 (00:00)
92 Lethal VR Nov 8, 2016 $3.74N/A (N/A/66%)0 .. 20,0000%00:00 (00:00)
93 Interloper May 21, 2015 $1N/A (N/A/77%)50,000 .. 100,0000%00:00 (00:00)
94 Earn to Die 2 May 5, 2016 $4.99N/A (N/A)0 .. 20,0000%00:00 (00:00)
95 Atom Zombie Smasher Mar 14, 2011 $9.99N/A (N/A/75%)200,000 .. 500,0000.98%00:06 (00:02)
96 Amaranthine Apr 6, 2016 $2.99N/A (N/A)20,000 .. 50,00010.71%02:00 (01:17)
97 Steel Rain Dec 3, 2015 $9.99N/A (N/A)0 .. 20,0000%00:00 (00:00)
98 Anodyne Mar 22, 2013 $9.99N/A (N/A/75%)100,000 .. 200,0001.18%04:29 (01:29)
99 The Fall May 30, 2014 $9.99N/A (N/A/76%)200,000 .. 500,0000%00:00 (00:00)
100 Spooky Cats Jun 4, 2015 $2.99N/A (N/A)20,000 .. 50,0001.72%01:30 (00:30)
101 Civilization IV: Warlords Apr 6, 2007 $4.99N/A (N/A/84%)1,000,000 .. 2,000,0000%00:00 (00:00)
102 Supreme Commander Sep 28, 2011 $14.99N/A (N/A/86%)500,000 .. 1,000,0000.51%00:02 (00:00)
103 Sang-Froid - Tales of Werewolves Apr 5, 2013 FreeN/A (N/A/79%)200,000 .. 500,0000%00:00 (00:00)
104 Age of Wonders Shadow Magic Oct 2010 $2.49N/A (N/A/82%)100,000 .. 200,0000%00:00 (00:00)
105 Mr. Shifty Apr 13, 2017 $14.9960% (87%)200,000 .. 500,0003.49%00:09 (00:06)
106 Super Furball Apr 21, 2015 $3.99N/A (N/A)0 .. 20,0000%00:00 (00:00)
107 Civilization IV: Warlords Apr 6, 2007 $4.99N/A (N/A/84%)1,000,000 .. 2,000,0000%00:00 (00:00)
108 Bullet Sorrow VR Apr 17, 2017 $19.9960% (87%)0 .. 20,0000%00:00 (00:00)
109 Shadow Blade: Reload Aug 10, 2015 $14.99N/A (N/A/70%)20,000 .. 50,0000%00:00 (00:00)
110 Tron 2.0 Oct 10, 2014 $9.99N/A (N/A/84%)20,000 .. 50,0000%00:00 (00:00)
111 Super Chibi Knight Jun 24, 2015 $4.99N/A (N/A)20,000 .. 50,0002.7%03:46 (01:15)
112 Rush for Berlin Gold Oct 29, 2009 $4.99N/A (N/A/76%)20,000 .. 50,0000%00:00 (00:00)
113 Western 1849 Reloaded Feb 10, 2017 $4.99N/A (N/A)0 .. 20,0000%00:00 (00:00)
114 Executive Assault Jul 17, 2015 $12.99N/A (N/A)50,000 .. 100,0000%00:00 (00:00)
115 Neon Shadow Aug 25, 2016 $4.99N/A (N/A)0 .. 20,0000%00:00 (00:00)
116 Arcane Sorcery Sep 15, 2015 $4.99N/A (N/A)0 .. 20,0000%00:00 (00:00)
117 The Haunted: Hells Reach Oct 24, 2011 $8.99N/A (N/A/51%)50,000 .. 100,0000%00:00 (00:00)
118 Meltdown Jun 5, 2014 $6.99N/A (N/A)50,000 .. 100,0000%00:00 (00:00)
119 Time Rifters Oct 21, 2014 $9.9957% (86%)0 .. 20,00016.67%01:49 (01:10)
120 Ghost Master Dec 21, 2006 $4.99N/A (N/A/81%)100,000 .. 200,0000%00:00 (00:00)
121 N2O: Nitrous Oxide Jun 29, 2015 $4.99N/A (N/A)0 .. 20,0000%00:00 (00:00)
122 VelocityUltra Dec 12, 2013 $9.99N/A (N/A)50,000 .. 100,0002.47%03:52 (02:34)
123 The Tiny Tale 2 Jan 30, 2015 $6.99N/A (N/A)0 .. 20,0000%00:00 (00:00)
124 Star Ruler Sep 20, 2010 $9.99N/A (N/A)100,000 .. 200,0000%00:00 (00:00)
125 Dustoff Heli Rescue Mar 6, 2015 $3.99N/A (N/A)20,000 .. 50,0000%00:00 (00:00)
126 Magnifico Dec 2, 2014 $4.99N/A (N/A)50,000 .. 100,0000%00:00 (00:00)
127 NOBUNAGA'S AMBITION: Souzou (Traditional Chinese version) Aug 2014 $24.99N/A (N/A)20,000 .. 50,0000%00:00 (00:00)
128 Concealed Intent Aug 2, 2016 $2.99N/A (N/A)0 .. 20,0000%00:00 (00:00)
129 Gurgamoth Feb 16, 2016 $4.99N/A (N/A)50,000 .. 100,0002.9%03:44 (02:29)
130 ShootMania Storm Apr 10, 2013 $19.9953% (85%/76%)50,000 .. 100,0000%00:00 (00:00)
131 Slash or Die Jun 3, 2016 $2.99N/A (N/A)50,000 .. 100,0002.9%02:57 (03:55)
132 ENSLAVED: Odyssey to the West Premium Edition Oct 24, 2013 $19.9953% (85%/70%)200,000 .. 500,0000%00:00 (00:00)
133 CRYPTARK Jun 20, 2017 $14.9953% (85%/80%)50,000 .. 100,0000%00:00 (00:00)
134 Ballistic Tanks Sep 20, 2016 $4.99N/A (N/A)0 .. 20,0000%00:00 (00:00)
135 Yomi May 8, 2015 $14.99N/A (N/A)0 .. 20,0000%00:00 (00:00)
136 Decisive Campaigns: The Blitzkrieg from Warsaw to Paris Jan 22, 2015 $39.99N/A (N/A)0 .. 20,0000%00:00 (00:00)
137 Foresight Nov 28, 2014 $4.99N/A (N/A)0 .. 20,0001%00:16 (00:05)
138 Act of War: Direct Action Mar 12, 2008 $2.99N/A (N/A/82%)20,000 .. 50,0000%00:00 (00:00)
139 Advanced Tactics Gold Aug 15, 2014 $29.99N/A (N/A)0 .. 20,0000%00:00 (00:00)
140 Rooks Keep Dec 5, 2014 $7.99N/A (N/A)20,000 .. 50,0000%00:00 (00:00)
141 Fat Chicken Dec 4, 2014 $9.99N/A (N/A)0 .. 20,0000%00:00 (00:00)
142 Sudden Strike 2 Gold May 22, 2017 $5.99N/A (N/A)20,000 .. 50,0000%00:00 (00:00)
143 Last Knight: Rogue Rider Edition Oct 3, 2014 $7.99N/A (N/A)20,000 .. 50,0001.79%00:15 (00:05)
144 Galaxy Admirals Jan 17, 2017 $1.99N/A (N/A)50,000 .. 100,0000%00:00 (00:00)
145 Child Of Ault Jan 24, 2017 $9.99N/A (N/A)0 .. 20,0000%00:00 (00:00)
146 Ace of Protectors Jun 27, 2016 $1.99N/A (N/A)0 .. 20,0002.38%02:52 (00:57)
147 The Men of Yoshiwara: Kikuya Oct 14, 2015 $29.99N/A (N/A)0 .. 20,0000%00:00 (00:00)
148 Conflict Desert Storm May 28, 2012 $6.99N/A (N/A/56%)20,000 .. 50,0004.17%00:06 (00:02)
149 Eador: Genesis Oct 14, 2013 $5.99N/A (N/A)50,000 .. 100,0000%00:00 (00:00)
150 Orbital Gear Aug 7, 2014 $9.99N/A (N/A/59%)200,000 .. 500,0001.18%04:40 (03:43)
151 Rack N Ruin Sep 1, 2015 $9.99N/A (N/A)20,000 .. 50,0000%00:00 (00:00)
152 Battle Group 2 Jun 13, 2014 $7.99N/A (N/A)50,000 .. 100,0000%00:00 (00:00)
153 Vector Strain Dec 9, 2015 $4.99N/A (N/A)20,000 .. 50,0000%00:00 (00:00)
154 Bulletstorm: Full Clip Edition Apr 7, 2017 $39.9948% (83%/76%)20,000 .. 50,0008.7%04:19 (02:51)
155 NOBUNAGA'S AMBITION: Sphere of Influence Sep 1, 2015 $59.99N/A (N/A/70%)20,000 .. 50,0000%00:00 (00:00)
156 TY the Tasmanian Tiger 4 Sep 17, 2015 $5.99N/A (N/A)20,000 .. 50,0000%00:00 (00:00)
157 Crush Your Enemies Jul 13, 2016 $9.99N/A (N/A/63%)20,000 .. 50,0000%00:00 (00:00)
158 Legend (1994) Nov 10, 2015 $4.99N/A (N/A)0 .. 20,0000%00:00 (00:00)
159 Delta Force 2 Jun 18, 2009 $4.99N/A (N/A)20,000 .. 50,0005.88%00:01 (00:00)
160 Square Brawl Oct 22, 2015 $4.99N/A (N/A)0 .. 20,0000%00:00 (00:00)
161 Age of Wonders Oct 2010 $5.99N/A (N/A)100,000 .. 200,0000%00:00 (00:00)
162 Defense Zone Jul 14, 2014 $2.99N/A (N/A)0 .. 20,0000%00:00 (00:00)
163 Fleet Command Oct 26, 2006 $9.99N/A (N/A)50,000 .. 100,0000%00:00 (00:00)
164 After The End: The Harvest Jun 2, 2017 $4.99N/A (N/A)20,000 .. 50,0000%00:00 (00:00)
165 Afghanistan '11 Mar 23, 2017 $29.9945% (82%)0 .. 20,0000%00:00 (00:00)
166 PixelJunk Shooter Ultimate Oct 21, 2015 $9.99N/A (N/A)0 .. 20,0002.56%04:02 (01:20)
167 Disciples Sacred Lands Gold Oct 7, 2014 $7.99N/A (N/A)20,000 .. 50,0000%00:00 (00:00)
168 Crysis 2 - Maximum Edition Mar 22, 2011 $29.99N/A (N/A)100,000 .. 200,0000%00:00 (00:00)
169 htoL#NiQ: The Firefly Diary / htoL#NiQ-- May 18, 2016 $9.9945% (82%)20,000 .. 50,0000%00:00 (00:00)
170 Blue Effect VR Feb 8, 2017 $7.4945% (82%)0 .. 20,0000%00:00 (00:00)
171 Anomaly 2 May 15, 2013 $14.99N/A (N/A/77%)200,000 .. 500,0000.57%01:22 (00:27)
172 Enemy Mind Jun 6, 2014 $9.99N/A (N/A)200,000 .. 500,0000%00:00 (00:00)
173 Blade Arcus from Shining: Battle Arena Jul 28, 2016 $29.99N/A (N/A)0 .. 20,0000%00:00 (00:00)
174 She Wants Me Dead May 13, 2016 $7.99N/A (N/A)0 .. 20,0000%00:00 (00:00)
175 rymdkapsel Jan 30, 2014 $7.99N/A (N/A/77%)0 .. 20,0000%00:00 (00:00)
176 Perimeter Apr 3, 2014 $3.99N/A (N/A/77%)50,000 .. 100,0001.05%01:49 (00:36)
177 In Verbis Virtus Apr 3, 2015 $4.99N/A (N/A)50,000 .. 100,0000%00:00 (00:00)
178 Jim Power -The Lost Dimension Sep 30, 2015 $4.99N/A (N/A)0 .. 20,0000%00:00 (00:00)
179 Shadow Ops: Red Mercury Jul 2, 2014 $6.99N/A (N/A/61%)20,000 .. 50,0000%00:00 (00:00)
180 Toadled Sep 22, 2016 $0.99N/A (N/A)50,000 .. 100,0000%00:00 (00:00)
181 Defense Zone 3 Ultra HD Dec 14, 2016 $2.99N/A (N/A)0 .. 20,0000%00:00 (00:00)
182 Trigger Runners Mar 3, 2016 $1.99N/A (N/A)0 .. 20,0000%00:00 (00:00)
183 Graviteam Tactics: Operation Star Feb 11, 2014 $29.99N/A (N/A)20,000 .. 50,0000%00:00 (00:00)
184 Legends of Callasia Jun 10, 2016 Free41% (80%)50,000 .. 100,0000%00:00 (00:00)
185 Weapon of Choice Sep 23, 2015 $4.99N/A (N/A)0 .. 20,0000%00:00 (00:00)
186 Dominions 3: The Awakening Sep 10, 2013 $19.99N/A (N/A/82%)20,000 .. 50,0000%00:00 (00:00)
187 Run Rabbit Run Mar 31, 2016 $3.99N/A (N/A)0 .. 20,0000%00:00 (00:00)
188 Monday Night Combat Jan 24, 2011 $4.99N/A (N/A/82%)200,000 .. 500,0000%00:00 (00:00)
189 Fate of the World Feb 28, 2011 $9.99N/A (N/A/70%)50,000 .. 100,0000%00:00 (00:00)
190 Gun Metal Jan 16, 2014 $2.99N/A (N/A)200,000 .. 500,0000.28%02:35 (00:51)
191 Bloodsports.TV Mar 30, 2015 $2.4941% (80%/69%)50,000 .. 100,0000%00:00 (00:00)
192 Zeno Clash 2 Apr 30, 2013 $14.99N/A (N/A)200,000 .. 500,0000%00:00 (00:00)
193 Supreme Ruler 2020 Gold Jul 9, 2009 $9.99N/A (N/A/65%)50,000 .. 100,0000%00:00 (00:00)
194 Age of Gladiators Feb 25, 2016 $9.99N/A (N/A)20,000 .. 50,0002.7%01:35 (00:31)
195 Umihara Kawase Shun: Steam Edition Nov 24, 2015 $11.99N/A (N/A)0 .. 20,0000%00:00 (00:00)
196 Gatling Gears Aug 30, 2011 $9.99N/A (N/A)50,000 .. 100,0000%00:00 (00:00)
197 Making History: The Calm & the Storm Mar 13, 2007 $4.9941% (80%/70%)50,000 .. 100,0000%00:00 (00:00)
198 Ninjahtic Jul 6, 2015 $1.99N/A (N/A)0 .. 20,0000%00:00 (00:00)
199 Anomaly Warzone Earth Mobile Campaign Nov 6, 2013 $4.99N/A (N/A)100,000 .. 200,0000%00:00 (00:00)
200 Tiki Man Jun 5, 2015 $0.99N/A (N/A)20,000 .. 50,0000%00:00 (00:00)
201 ROD: Revolt Of Defense Aug 12, 2016 $0.99N/A (N/A)20,000 .. 50,0000%00:00 (00:00)
202 Interplanetary May 12, 2015 N/AN/A (N/A)100,000 .. 200,0001.89%02:11 (00:43)
203 TASTEE: Lethal Tactics May 10, 2016 $14.99N/A (N/A)20,000 .. 50,0000%00:00 (00:00)
204 Star Realms Mar 8, 2016 FreeN/A (N/A)100,000 .. 200,0000%00:00 (00:00)
205 Conquest of Elysium 3 Oct 24, 2012 $9.9939% (79%)20,000 .. 50,0000%00:00 (00:00)
206 David. Feb 16, 2015 $1.9939% (79%)50,000 .. 100,0000%00:00 (00:00)
207 Vietnam 65 Mar 5, 2015 $9.99N/A (N/A/81%)20,000 .. 50,0000%00:00 (00:00)
208 Cultures - 8th Wonder of the World Mar 26, 2015 $0.49N/A (N/A)50,000 .. 100,0001.41%16:13 (05:24)
209 Demolition Inc. Sep 19, 2011 $5.99N/A (N/A)50,000 .. 100,0000%00:00 (00:00)
210 Hail to the King: Deathbat Oct 30, 2014 $5.99N/A (N/A)0 .. 20,0000%00:00 (00:00)
211 Locoland May 28, 2015 $4.99N/A (N/A)0 .. 20,0000%00:00 (00:00)
212 Fantasy Wars Aug 6, 2010 $4.99N/A (N/A/67%)50,000 .. 100,0001.72%06:22 (02:07)
213 Zombie Party Jun 10, 2016 $9.9939% (79%)100,000 .. 200,00032.35%04:56 (05:12)
214 Nuclear Dawn Sep 26, 2011 $9.99N/A (N/A/71%)200,000 .. 500,0000%00:00 (00:00)
215 Caster Mar 19, 2009 $1.99N/A (N/A)200,000 .. 500,0000%00:00 (00:00)
216 Protoshift Jan 15, 2016 $0.99N/A (N/A)0 .. 20,0000%00:00 (00:00)
217 Star Wolves 3: Civil War Mar 2, 2010 $4.99N/A (N/A)100,000 .. 200,0000%00:00 (00:00)
218 Ironcast Mar 26, 2015 $14.9939% (79%/75%)20,000 .. 50,0000%00:00 (00:00)
219 Fortified Feb 3, 2016 $14.99N/A (N/A)0 .. 20,0000%00:00 (00:00)
220 Starscape Nov 3, 2008 $7.9939% (79%)0 .. 20,0000%00:00 (00:00)
221 7,62 High Calibre Apr 30, 2014 $4.99N/A (N/A)50,000 .. 100,0000%00:00 (00:00)
222 Klang Sep 22, 2016 $14.99N/A (N/A/71%)0 .. 20,0000%00:00 (00:00)
223 Making History II: The War of the World Aug 27, 2010 $14.99N/A (N/A/38%)20,000 .. 50,0000%00:00 (00:00)
224 Dangerous Waters Feb 7, 2006 $14.99N/A (N/A/82%)50,000 .. 100,0000%00:00 (00:00)
225 Deadly 30 Jan 8, 2014 $4.9937% (78%)100,000 .. 200,0001.91%02:17 (02:14)
226 Pharaonic Apr 28, 2016 $14.99N/A (N/A)20,000 .. 50,0000%00:00 (00:00)
227 Strike Suit Zero: Director's Cut Apr 8, 2014 $19.99N/A (N/A)20,000 .. 50,0000%00:00 (00:00)
228 Advent Rising Sep 14, 2006 $9.99N/A (N/A/70%)50,000 .. 100,0000%00:00 (00:00)
229 Battle Mages: Sign of Darkness Jul 24, 2014 $4.99N/A (N/A)0 .. 20,0000%00:00 (00:00)
230 Hordelicious Jul 10, 2015 $3.9937% (78%)20,000 .. 50,0000%00:00 (00:00)
231 Envoy Mar 17, 2016 $4.99N/A (N/A)50,000 .. 100,0000.49%03:02 (01:00)
232 Heroes of Might & Magic V: Hammers of Fate Oct 10, 2008 $9.99N/A (N/A/66%)100,000 .. 200,0000%00:00 (00:00)
233 Battlezone May 11, 2017 $19.99N/A (N/A)0 .. 20,0000%00:00 (00:00)
234 TRON RUN/r Feb 16, 2016 $19.99N/A (N/A)0 .. 20,0000%00:00 (00:00)
235 Dead Rising 2: Off the Record Oct 11, 2011 $19.99N/A (N/A/66%)200,000 .. 500,0001.02%02:15 (01:29)
236 Othello Mar 19, 2015 $9.99N/A (N/A)0 .. 20,0000%00:00 (00:00)
237 Aeon Command Jul 3, 2014 $2.9937% (78%)20,000 .. 50,0000%00:00 (00:00)
238 The Legend of Dark Witch Dec 1, 2015 $4.9937% (78%)20,000 .. 50,0000%00:00 (00:00)
239 Curse of the Crescent Isle DX Aug 21, 2015 $4.99N/A (N/A)0 .. 20,0000%00:00 (00:00)
240 Mold on Pizza Sep 25, 2015 $5.99N/A (N/A)0 .. 20,0000%00:00 (00:00)
241 A Blind Legend Apr 7, 2016 $6.99N/A (N/A)0 .. 20,0000%00:00 (00:00)
242 Warhammer 40,000: Armageddon Nov 26, 2014 $39.99N/A (N/A/68%)20,000 .. 50,0000%00:00 (00:00)
243 A.R.E.S. Extinction Agenda EX Oct 3, 2014 $9.99N/A (N/A)0 .. 20,0004.55%00:49 (00:16)
244 Bet On Soldier Dec 5, 2014 $7.99N/A (N/A)20,000 .. 50,0000%00:00 (00:00)
245 McDROID Sep 5, 2014 $9.99N/A (N/A)0 .. 20,0000%00:00 (00:00)
246 Painkiller Hell & Damnation Oct 31, 2012 $19.99N/A (N/A/64%)500,000 .. 1,000,0000.51%04:08 (01:22)
247 Riddled Corpses Jun 2, 2015 $7.99N/A (N/A)20,000 .. 50,0000%00:00 (00:00)
248 Rocketbirds 2 Evolution Jan 26, 2017 $9.99N/A (N/A)0 .. 20,0000%00:00 (00:00)
249 Mysterium: A Psychic Clue Game Jan 12, 2017 $9.99N/A (N/A)50,000 .. 100,0000%00:00 (00:00)
250 The Political Machine 2016 Feb 4, 2016 $9.99N/A (N/A)100,000 .. 200,0000%00:00 (00:00)
251 Warlords Battlecry III Jan 22, 2016 $9.99N/A (N/A/73%)0 .. 20,0000%00:00 (00:00)
252 King of Dragon Pass Jul 28, 2015 $11.99N/A (N/A)50,000 .. 100,0003.06%04:12 (04:12)
253 Spirits of Xanadu Mar 26, 2015 $4.9935% (77%)20,000 .. 50,0002.44%04:26 (01:28)
254 PAC-MAN and the Ghostly Adventures Oct 29, 2013 $19.99N/A (N/A)0 .. 20,0000%00:00 (00:00)
255 Tank Destroyer Mar 9, 2017 $0.535% (77%)20,000 .. 50,0004.44%01:14 (00:33)
256 Sky Gamblers: Storm Raiders Jan 7, 2015 $9.99N/A (N/A)0 .. 20,0000%00:00 (00:00)
257 Corgi Warlock Dec 3, 2015 $1.99N/A (N/A)20,000 .. 50,0000%00:00 (00:00)
258 Starchaser: Priestess of the Night Sky Jul 24, 2015 $9.99N/A (N/A)0 .. 20,0000%00:00 (00:00)
259 Battle Time Sep 29, 2016 $0.99N/A (N/A)20,000 .. 50,0000%00:00 (00:00)
260 Monster Monpiece Mar 14, 2017 $19.99N/A (N/A)20,000 .. 50,0004.35%03:02 (01:00)
261 Chaser Jul 16, 2010 $4.99N/A (N/A/66%)100,000 .. 200,0000%00:00 (00:00)
262 Deadlings: Rotten Edition Nov 11, 2014 $3.99N/A (N/A)50,000 .. 100,0000%00:00 (00:00)
263 Z Jul 4, 2014 $6.99N/A (N/A)100,000 .. 200,0001.12%02:24 (01:35)
264 Civil War II Jul 3, 2014 $39.99N/A (N/A)0 .. 20,0000%00:00 (00:00)
265 BloodRayne Sep 14, 2006 $9.99N/A (N/A/65%)50,000 .. 100,0000%00:00 (00:00)
266 Livelock Aug 30, 2016 $9.99N/A (N/A/73%)20,000 .. 50,0002.78%00:01 (00:00)
267 Extravaganza Rising Jul 21, 2016 $5.99N/A (N/A)20,000 .. 50,0001.82%04:23 (01:27)
268 Velocity 2X Aug 19, 2015 $19.99N/A (N/A)50,000 .. 100,0000%00:00 (00:00)
269 Cashtronauts Aug 31, 2016 $2.99N/A (N/A)0 .. 20,0000%00:00 (00:00)
270 Heroes of Arca Feb 16, 2017 FreeN/A (N/A)0 .. 20,0000%00:00 (00:00)
271 Rocket Knight May 11, 2010 $14.99N/A (N/A/63%)0 .. 20,0000%00:00 (00:00)
272 Zombie Killtime Aug 4, 2015 $1.99N/A (N/A)0 .. 20,0000%00:00 (00:00)
273 WARSHIFT Oct 12, 2016 $12.99N/A (N/A)20,000 .. 50,0000%00:00 (00:00)
274 Olympia Rising Jul 23, 2015 $4.99N/A (N/A)20,000 .. 50,0000%00:00 (00:00)
275 Star Hammer: The Vanguard Prophecy Jun 4, 2015 $19.99N/A (N/A/69%)0 .. 20,0000%00:00 (00:00)
276 Platformines Mar 28, 2014 $9.99N/A (N/A/67%)100,000 .. 200,0000%00:00 (00:00)
277 Albino Lullaby: Episode 1 Sep 14, 2015 $9.99N/A (N/A)20,000 .. 50,0000%00:00 (00:00)
278 Smell Of Death Jul 4, 2016 $9.99N/A (N/A)0 .. 20,0000%00:00 (00:00)
279 Pick a Hero Jun 9, 2016 $0.99N/A (N/A)0 .. 20,0000%00:00 (00:00)
280 Perimeter: Emperor's Testament May 22, 2014 $3.99N/A (N/A/72%)20,000 .. 50,0000%00:00 (00:00)
281 Hot Tin Roof: The Cat That Wore A Fedora Feb 20, 2015 $14.99N/A (N/A/66%)100,000 .. 200,0000%00:00 (00:00)
282 Onechanbara Z2: Chaos Jun 2, 2016 $39.99N/A (N/A)0 .. 20,0000%00:00 (00:00)
283 Zoo Empire Sep 3, 2015 $6.99N/A (N/A/59%)0 .. 20,0000%00:00 (00:00)
284 Fist Puncher Jun 21, 2013 $9.9932% (75%/73%)20,000 .. 50,0002.56%05:21 (01:47)
285 Ubersoldier II Mar 25, 2014 $9.99N/A (N/A/62%)20,000 .. 50,0000%00:00 (00:00)
286 CivCity: Rome Apr 6, 2007 $9.9932% (75%/67%)50,000 .. 100,0000%00:00 (00:00)
287 Master Reboot Oct 29, 2013 $14.99N/A (N/A/59%)50,000 .. 100,0000%00:00 (00:00)
288 The Superfluous May 19, 2017 $4.99N/A (N/A)0 .. 20,0000%00:00 (00:00)
289 FIVE: Champions of Canaan Sep 27, 2016 $3.99N/A (N/A)0 .. 20,0000%00:00 (00:00)
290 Victory At Sea Aug 8, 2014 $7.49N/A (N/A)20,000 .. 50,0000%00:00 (00:00)
291 Commander: The Great War Jul 25, 2014 $29.99N/A (N/A)0 .. 20,0000%00:00 (00:00)
292 Auralux: Constellations Jun 1, 2016 $9.99N/A (N/A)0 .. 20,0000%00:00 (00:00)
293 Making History: The Great War Jan 29, 2015 $29.99N/A (N/A)20,000 .. 50,0000%00:00 (00:00)
294 Auro: A Monster-Bumping Adventure Apr 13, 2016 $6.99N/A (N/A)0 .. 20,0000%00:00 (00:00)
295 Distant Worlds: Universe May 23, 2014 $59.99N/A (N/A/81%)50,000 .. 100,0000%00:00 (00:00)
296 Bubsy Two-Fur Dec 17, 2015 $4.99N/A (N/A)0 .. 20,0000%00:00 (00:00)
297 Codex of Victory Mar 16, 2017 $14.9930% (74%)0 .. 20,0000%00:00 (00:00)
298 Vampire of the Sands Jul 17, 2015 $4.99N/A (N/A)20,000 .. 50,0001.85%05:31 (01:50)
299 Banzai Escape Feb 29, 2016 $5.99N/A (N/A)0 .. 20,0000%00:00 (00:00)
300 Hunting Unlimited 2008 Jan 29, 2008 $9.99N/A (N/A)20,000 .. 50,0000%00:00 (00:00)
301 FEIST Jul 23, 2015 $9.9930% (74%)20,000 .. 50,0000%00:00 (00:00)
302 Divinity: Dragon Commander Aug 6, 2013 $39.99N/A (N/A)200,000 .. 500,0000%00:00 (00:00)
303 Phoning Home Feb 7, 2017 $4.99N/A (N/A/61%)20,000 .. 50,0002.78%06:33 (02:11)
304 Sid Meiers Ace Patrol Aug 27, 2013 $4.99N/A (N/A)500,000 .. 1,000,0000%00:00 (00:00)
305 LEGO Indiana Jones 2: The Adventure Continues Feb 18, 2010 $19.99N/A (N/A/66%)50,000 .. 100,0000%00:00 (00:00)
306 Supreme Ruler Ultimate Oct 17, 2014 $19.99N/A (N/A)20,000 .. 50,00012.5%00:59 (00:19)
307 VRZ: Torment May 18, 2017 $5.4930% (74%)0 .. 20,0000%00:00 (00:00)
308 Cast of the Seven Godsends - Redux Jul 20, 2015 $9.9928% (73%)20,000 .. 50,0001.54%02:28 (00:49)
309 Rex Rocket Aug 5, 2014 $4.99N/A (N/A)20,000 .. 50,0000%00:00 (00:00)
310 Pike and Shot : Campaigns Aug 13, 2015 $39.99N/A (N/A)0 .. 20,0000%00:00 (00:00)
311 King Arthur - The Role-playing Wargame Nov 24, 2009 $2.49N/A (N/A)200,000 .. 500,0000%00:00 (00:00)
312 Sengoku Jidai: Shadow of the Shogun May 19, 2016 $29.99N/A (N/A/80%)0 .. 20,0000%00:00 (00:00)
313 Viktor Jun 13, 2014 $7.99N/A (N/A)20,000 .. 50,0000%00:00 (00:00)
314 Rise & Shine Jan 13, 2017 $14.9928% (73%)50,000 .. 100,0000%00:00 (00:00)
315 The Aquatic Adventure of the Last Human Jan 19, 2016 $9.99N/A (N/A/76%)0 .. 20,0000%00:00 (00:00)
316 TableTop Soccer Apr 22, 2016 $0.99N/A (N/A)0 .. 20,0000%00:00 (00:00)
317 Death by Game Show Jan 22, 2016 $9.99N/A (N/A)20,000 .. 50,0000%00:00 (00:00)
318 Fatal Fight Jun 10, 2016 $2.99N/A (N/A)0 .. 20,0000%00:00 (00:00)
319 Warp Mar 21, 2012 $9.9928% (73%)20,000 .. 50,0000%00:00 (00:00)
320 Airship Dragoon Aug 26, 2014 $9.99N/A (N/A)0 .. 20,0000%00:00 (00:00)
321 Gold Rush! Anniversary Nov 7, 2014 $5.99N/A (N/A)100,000 .. 200,0002.86%00:55 (01:15)
322 Alarameth TD Jun 23, 2015 $4.99N/A (N/A)0 .. 20,0000%00:00 (00:00)
323 There Came an Echo Feb 24, 2015 $14.99N/A (N/A/58%)20,000 .. 50,0000%00:00 (00:00)
324 rooMaze Mar 3, 2017 $1.99N/A (N/A)20,000 .. 50,0000%00:00 (00:00)
325 Wildlife Park 2 - Crazy Zoo Jul 17, 2014 $3.99N/A (N/A)20,000 .. 50,0000%00:00 (00:00)
326 Lux Delux May 1, 2015 $9.99N/A (N/A)20,000 .. 50,0000%00:00 (00:00)
327 Cuban Missile Crisis Mar 25, 2015 $4.9927% (72%)20,000 .. 50,0000%00:00 (00:00)
328 Cross of the Dutchman Sep 10, 2015 $8.9927% (72%/59%)20,000 .. 50,0000%00:00 (00:00)
329 Retrovirus Jan 31, 2013 $9.99N/A (N/A/70%)20,000 .. 50,0000%00:00 (00:00)
330 Civil War: Battle of Petersburg Feb 8, 2017 $0.99N/A (N/A)20,000 .. 50,0000%00:00 (00:00)
331 Deadnaut Dec 8, 2014 $9.99N/A (N/A)20,000 .. 50,0000%00:00 (00:00)
332 Battle Fleet 2 Nov 20, 2014 $14.99N/A (N/A)20,000 .. 50,0000%00:00 (00:00)
333 Panzer Tactics HD May 22, 2014 $9.99N/A (N/A/69%)20,000 .. 50,0000%00:00 (00:00)
334 Wyv and Keep: The Temple of the Lost Idol Aug 8, 2014 $14.99N/A (N/A)20,000 .. 50,0000%00:00 (00:00)
335 Lost Planet: Extreme Condition Jun 26, 2007 $14.99N/A (N/A/66%)200,000 .. 500,0000%00:00 (00:00)
336 GEARGUNS Tank offensive Sep 20, 2016 $1.5127% (72%)20,000 .. 50,0000%00:00 (00:00)
337 Smithy Jun 3, 2016 $3.99N/A (N/A)50,000 .. 100,0000.62%02:23 (00:47)
338 A.R.E.S.: Extinction Agenda Jan 19, 2011 $4.99N/A (N/A/68%)100,000 .. 200,0000%00:00 (00:00)
339 Jagged Alliance 2 - Wildfire Nov 16, 2012 $6.99N/A (N/A)200,000 .. 500,0004.31%06:57 (07:09)
340 Space Colony: Steam Edition Apr 30, 2015 $14.99N/A (N/A/74%)20,000 .. 50,0000%00:00 (00:00)
341 Zombie Camp Jul 31, 2016 $1.99N/A (N/A)0 .. 20,0000%00:00 (00:00)
342 REDCON Apr 22, 2016 $5.99N/A (N/A)20,000 .. 50,0000%00:00 (00:00)
343 The Last Federation Apr 18, 2014 $19.9926% (71%/72%)100,000 .. 200,0000%00:00 (00:00)
344 Tom Clancy's EndWar Feb 25, 2009 $9.99N/A (N/A/68%)50,000 .. 100,0000%00:00 (00:00)
345 Pongo May 11, 2015 $0.99N/A (N/A)50,000 .. 100,0002.13%00:31 (00:20)
346 Little King's Story Aug 5, 2016 $19.99N/A (N/A/62%)0 .. 20,0000%00:00 (00:00)
347 BitMaster Oct 12, 2016 $2.99N/A (N/A)100,000 .. 200,0000%00:00 (00:00)
348 Elven Legacy Apr 7, 2009 $4.99N/A (N/A/71%)50,000 .. 100,0000%00:00 (00:00)
349 Elliot Quest Nov 10, 2014 $9.99N/A (N/A)20,000 .. 50,0000%00:00 (00:00)
350 Space Food Truck Mar 25, 2016 $9.99N/A (N/A)0 .. 20,0000%00:00 (00:00)
351 Incandescent Jun 30, 2015 $0.49N/A (N/A)20,000 .. 50,0000.8%01:32 (00:30)
352 Crazy Forest Jul 6, 2016 $4.99N/A (N/A)100,000 .. 200,0001.18%01:53 (01:15)
353 Disney Planes Oct 6, 2014 $19.99N/A (N/A)0 .. 20,0000%00:00 (00:00)
354 Collapse Apr 11, 2014 $19.9924% (70%)50,000 .. 100,0000%00:00 (00:00)
355 Zombie City Defense 2 Aug 19, 2016 $9.99N/A (N/A)0 .. 20,0000%00:00 (00:00)
356 Heaven Forest NIGHTS Mar 14, 2017 $0.69N/A (N/A)100,000 .. 200,0001.79%02:13 (01:08)
357 Quick Slick Deadly Sep 21, 2015 $0.49N/A (N/A)20,000 .. 50,0000%00:00 (00:00)
358 YAIBA: NINJA GAIDEN Z Mar 21, 2014 $29.99N/A (N/A/49%)20,000 .. 50,0000%00:00 (00:00)
359 The Nightmare Cooperative Jul 16, 2014 $4.99N/A (N/A)50,000 .. 100,0000%00:00 (00:00)
360 ManaCollect Apr 17, 2015 $6.99N/A (N/A)0 .. 20,0000%00:00 (00:00)
361 Scourge of War: Waterloo Nov 19, 2015 $49.9923% (69%)0 .. 20,0000%00:00 (00:00)
362 Spud's Quest Jul 31, 2014 $7.99N/A (N/A)0 .. 20,0000%00:00 (00:00)
363 The Living Dungeon Nov 2, 2015 $12.99N/A (N/A)0 .. 20,0000%00:00 (00:00)
364 Warrior Kings Apr 24, 2014 $9.99N/A (N/A/73%)0 .. 20,0000%00:00 (00:00)
365 Guns n Zombies Oct 30, 2014 $7.99N/A (N/A)100,000 .. 200,0000%00:00 (00:00)
366 The Hive Aug 25, 2016 $9.99N/A (N/A)20,000 .. 50,0000%00:00 (00:00)
367 Brigade E5: New Jagged Union Apr 30, 2014 $3.99N/A (N/A/41%)20,000 .. 50,0000%00:00 (00:00)
368 Strategy & Tactics: Wargame Collection Apr 22, 2016 $9.99N/A (N/A)20,000 .. 50,00011.83%04:31 (04:26)
369 RISK: Factions Mar 8, 2011 $9.99N/A (N/A/77%)50,000 .. 100,0000%00:00 (00:00)
370 Pigmentone Jul 8, 2016 $1.99N/A (N/A)0 .. 20,00015.38%02:53 (01:55)
371 Stonerid Aug 15, 2014 $4.99N/A (N/A)50,000 .. 100,0000%00:00 (00:00)
372 Toren May 11, 2015 $9.9922% (68%/57%)50,000 .. 100,0002.2%00:08 (00:05)
373 Sorcerer King Jul 16, 2015 $9.9922% (68%/75%)20,000 .. 50,0000%00:00 (00:00)
374 Revolution Under Siege Gold Jul 2, 2015 $24.99N/A (N/A)0 .. 20,0000%00:00 (00:00)
375 Fair Strike Apr 23, 2015 $3.99N/A (N/A/56%)0 .. 20,0000%00:00 (00:00)
376 Kill The Plumber Dec 31, 2015 $4.99N/A (N/A)0 .. 20,0000%00:00 (00:00)
377 FIVE: Guardians of David Nov 24, 2015 $9.9922% (68%/66%)20,000 .. 50,0000%00:00 (00:00)
378 Theatre of War 2: Africa 1943 Jul 9, 2010 $4.99N/A (N/A/63%)100,000 .. 200,0000%00:00 (00:00)
379 Sengoku Sep 15, 2011 $9.99N/A (N/A/70%)100,000 .. 200,0000%00:00 (00:00)
380 Royal Defense Nov 10, 2014 $4.99N/A (N/A)50,000 .. 100,0005.1%04:11 (05:38)
381 Scourge: Outbreak Apr 2, 2014 $7.99N/A (N/A)100,000 .. 200,0000%00:00 (00:00)
382 Zafehouse: Diaries Sep 6, 2013 $1.9921% (67%)50,000 .. 100,0000%00:00 (00:00)
383 Men of War: Condemned Heroes Apr 12, 2012 $7.99N/A (N/A/57%)100,000 .. 200,0000%00:00 (00:00)
384 Survivor Squad: Gauntlets Nov 16, 2015 $4.99N/A (N/A)20,000 .. 50,0000%00:00 (00:00)
385 Chainsaw Warrior Oct 7, 2013 $4.99N/A (N/A)50,000 .. 100,0000%00:00 (00:00)
386 Toy Odyssey: The Lost and Found Sep 20, 2016 $14.9921% (67%/66%)100,000 .. 200,0001.32%00:01 (00:00)
387 Nomad Fleet Apr 19, 2016 $9.99N/A (N/A)0 .. 20,00013.33%03:06 (02:03)
388 Alea Jacta Est Nov 4, 2014 $24.99N/A (N/A)0 .. 20,0000%00:00 (00:00)
389 1849 May 8, 2014 $14.99N/A (N/A)20,000 .. 50,0000%00:00 (00:00)
390 Mad Combat Marines Jul 13, 2016 $0.99N/A (N/A)20,000 .. 50,0000%00:00 (00:00)
391 Bedlam Oct 13, 2015 $12.9920% (66%/54%)100,000 .. 200,0002.22%02:35 (01:43)
392 Infinity Runner Jul 14, 2014 $6.99N/A (N/A/56%)0 .. 20,0000%00:00 (00:00)
393 Commander Cool 2 Dec 17, 2015 $2.99N/A (N/A)20,000 .. 50,0000%00:00 (00:00)
394 UnSummoning: the Spectral Horde Dec 21, 2015 $3.99N/A (N/A)0 .. 20,0000%00:00 (00:00)
395 Disney Pirates of the Caribbean: At Worlds End Oct 6, 2014 $19.99N/A (N/A)0 .. 20,0000%00:00 (00:00)
396 Sky To Fly: Faster Than Wind Mar 25, 2016 $3.99N/A (N/A)0 .. 20,0000%00:00 (00:00)
397 Marauder Apr 4, 2014 $9.99N/A (N/A)20,000 .. 50,0000%00:00 (00:00)
398 Assassins Creed Chronicles: India Jan 12, 2016 $9.9920% (66%)20,000 .. 50,0000%00:00 (00:00)
399 Platypus II Aug 15, 2014 $6.99N/A (N/A)200,000 .. 500,0000.31%04:29 (01:29)
400 8-Bit Commando Jun 2, 2014 $2.99N/A (N/A)50,000 .. 100,0000%00:00 (00:00)
401 7th Legion Oct 23, 2014 $6.99N/A (N/A)0 .. 20,0000%00:00 (00:00)
402 My Super Tower 2 Jan 27, 2017 $0.99N/A (N/A)0 .. 20,0004.35%00:01 (00:00)
403 Frozen Synapse Prime Nov 14, 2014 $24.99N/A (N/A/83%)100,000 .. 200,0000%00:00 (00:00)
404 The Seven Years War (1756-1763) Oct 30, 2015 $7.99N/A (N/A)0 .. 20,0000%00:00 (00:00)
405 Zombie Tycoon 2: Brainhov's Revenge Dec 9, 2013 $4.99N/A (N/A)50,000 .. 100,0000%00:00 (00:00)
406 Devil's Dare Oct 21, 2014 $12.99N/A (N/A)20,000 .. 50,0000%00:00 (00:00)
407 March of the Eagles Feb 18, 2013 $19.9919% (65%/71%)50,000 .. 100,0000%00:00 (00:00)
408 Spirit of War Mar 12, 2015 $9.99N/A (N/A)20,000 .. 50,0000%00:00 (00:00)
409 Fallen Enchantress Oct 23, 2012 $9.9919% (65%/78%)100,000 .. 200,0000%00:00 (00:00)
410 Hunters Of The Dead Sep 4, 2014 $4.99N/A (N/A)20,000 .. 50,0000%00:00 (00:00)
411 Kaiju-A-GoGo Apr 23, 2015 $9.99N/A (N/A)20,000 .. 50,0000%00:00 (00:00)
412 Zoo Rampage Jul 9, 2014 $3.99N/A (N/A)0 .. 20,0000%00:00 (00:00)
413 Malebolgia May 6, 2015 $12.99N/A (N/A)0 .. 20,0000%00:00 (00:00)
414 Ground Breakers Jun 15, 2016 $4.99N/A (N/A)0 .. 20,0000%00:00 (00:00)
415 Theatre of War 2: Kursk 1943 Jul 9, 2010 $4.99N/A (N/A)50,000 .. 100,0000%00:00 (00:00)
416 Double Dragon IV Jan 30, 2017 $6.99N/A (N/A/50%)0 .. 20,0000%00:00 (00:00)
417 Battle Worlds: Kronos Nov 4, 2013 $19.99N/A (N/A/71%)20,000 .. 50,0000%00:00 (00:00)
418 Sorcerer King: Rivals Sep 22, 2016 $14.99N/A (N/A)50,000 .. 100,0000%00:00 (00:00)
419 Beasts Battle Jun 15, 2016 $1.99N/A (N/A)0 .. 20,0000%00:00 (00:00)
420 Jagged Alliance: Crossfire Aug 24, 2012 $14.9918% (64%/63%)100,000 .. 200,0000%00:00 (00:00)
421 Rise: Battle Lines Nov 17, 2015 $5.99N/A (N/A)0 .. 20,0005.41%02:53 (01:55)
422 Link Apr 22, 2016 $4.99N/A (N/A)0 .. 20,0000%00:00 (00:00)
423 Warlock 2: The Exiled Apr 10, 2014 $19.9918% (64%/73%)50,000 .. 100,0000%00:00 (00:00)
424 Urban Pirate Jun 17, 2016 $6.99N/A (N/A)0 .. 20,0000%00:00 (00:00)
425 SPACECOM Sep 17, 2014 $9.99N/A (N/A/68%)100,000 .. 200,0000%00:00 (00:00)
426 Revenge of Roger Rouge Apr 22, 2016 $0.99N/A (N/A)20,000 .. 50,0004.58%04:47 (04:34)
427 A Game of Dwarves Oct 23, 2012 $9.99N/A (N/A/60%)100,000 .. 200,0000%00:00 (00:00)
428 Port Royale 2 Jun 16, 2009 $4.99N/A (N/A/75%)50,000 .. 100,0000%00:00 (00:00)
429 Pixel Boy and the Ever Expanding Dungeon May 30, 2014 $0.99N/A (N/A)20,000 .. 50,0000%00:00 (00:00)
430 War, the Game Jan 12, 2015 $6.99N/A (N/A/65%)20,000 .. 50,0000%00:00 (00:00)
431 Will Fight for Food: Super Actual Sellout: Game of the Hour Apr 22, 2015 $5.99N/A (N/A)20,000 .. 50,0000%00:00 (00:00)
432 Desert Ashes Nov 10, 2014 $4.99N/A (N/A)20,000 .. 50,0000%00:00 (00:00)
433 Bombshell Jan 29, 2016 $34.9917% (63%)0 .. 20,0000%00:00 (00:00)
434 Disney Epic Mickey 2: The Power of Two Oct 6, 2014 $19.99N/A (N/A)20,000 .. 50,0000%00:00 (00:00)
435 Battleplan: American Civil War Jul 4, 2014 $9.99N/A (N/A/66%)100,000 .. 200,0000.38%00:01 (00:00)
436 4089: Ghost Within Jan 9, 2015 $5.99N/A (N/A)0 .. 20,0000%00:00 (00:00)
437 Supreme Ruler: Cold War Jul 29, 2011 $9.99N/A (N/A/63%)20,000 .. 50,0000%00:00 (00:00)
438 Goblin Defenders: Steeln Wood Nov 23, 2015 $2.99N/A (N/A)20,000 .. 50,0000%00:00 (00:00)
439 The Few Jun 18, 2014 $7.99N/A (N/A)20,000 .. 50,0000%00:00 (00:00)
440 BattleLore: Command Mar 31, 2015 $6.9916% (62%)0 .. 20,0000%00:00 (00:00)
441 Freight Tycoon Inc. Apr 3, 2014 $4.9916% (62%)20,000 .. 50,0005%09:46 (03:15)
442 Spice Road Apr 24, 2014 $19.99N/A (N/A)0 .. 20,0000%00:00 (00:00)
443 Hyperspace Pinball Sep 30, 2015 $2.99N/A (N/A)0 .. 20,0000%00:00 (00:00)
444 To End All Wars Aug 29, 2014 $39.9915% (61%/71%)0 .. 20,0000%00:00 (00:00)
445 Flashback Oct 1, 2013 $9.99N/A (N/A)20,000 .. 50,0000%00:00 (00:00)
446 Call of Duty: Black Ops - Mac Edition Sep 27, 2012 $19.99N/A (N/A)50,000 .. 100,0000%00:00 (00:00)
447 E.T. Armies Mar 3, 2016 $14.99N/A (N/A/54%)20,000 .. 50,0000%00:00 (00:00)
448 Legions of Steel Jul 16, 2015 $19.99N/A (N/A/64%)0 .. 20,0000%00:00 (00:00)
449 Quarantine May 24, 2017 $9.99N/A (N/A)0 .. 20,0000%00:00 (00:00)
450 Purgatory Jun 22, 2016 $0.99N/A (N/A)200,000 .. 500,0001.59%03:24 (04:15)
451 Men of War: Vietnam Sep 8, 2011 $7.99N/A (N/A/68%)200,000 .. 500,0001.61%00:27 (00:09)
452 Disciples III - Renaissance Steam Special Edition Jul 16, 2010 $14.99N/A (N/A/56%)200,000 .. 500,0000%00:00 (00:00)
453 Code of Princess Apr 14, 2016 $14.9913% (60%/53%)0 .. 20,0000%00:00 (00:00)
454 Stay Dead Evolution Feb 4, 2015 $5.99N/A (N/A)20,000 .. 50,0000%00:00 (00:00)
455 Grim Seventh Jan 20, 2017 FreeN/A (N/A)0 .. 20,0000%00:00 (00:00)
456 Dawn of Andromeda May 4, 2017 $29.9913% (60%/70%)0 .. 20,0000%00:00 (00:00)
457 Life in Bunker Feb 25, 2016 $15.99N/A (N/A)0 .. 20,0000%00:00 (00:00)
458 Skyshine's BEDLAM Sep 16, 2015 $19.9913% (60%/67%)20,000 .. 50,0000%00:00 (00:00)
459 Close Combat - Panthers in the Fog May 14, 2015 $39.99N/A (N/A)0 .. 20,0000%00:00 (00:00)
460 Overruled! Sep 15, 2015 $12.99N/A (N/A)20,000 .. 50,0000%00:00 (00:00)
461 Woolfe - The Red Hood Diaries Mar 17, 2015 $9.9913% (60%/55%)50,000 .. 100,0000%00:00 (00:00)
462 Patrician IV - Steam Special Edition Sep 17, 2010 $14.9913% (60%/66%)200,000 .. 500,0000%00:00 (00:00)
463 7 Grand Steps: What Ancients Begat Jun 7, 2013 $19.99N/A (N/A)100,000 .. 200,0000%00:00 (00:00)
464 Hybrid Wars Sep 29, 2016 $17.99N/A (N/A/54%)0 .. 20,0000%00:00 (00:00)
465 DreamBreak Jul 21, 2016 $6.99N/A (N/A/46%)0 .. 20,0004.35%03:06 (01:02)
466 Defend Your Crypt Jul 21, 2016 $2.99N/A (N/A)0 .. 20,0000%00:00 (00:00)
467 Ninjahtic Mind Tricks Jul 16, 2015 $1.99N/A (N/A)0 .. 20,0000%00:00 (00:00)
468 Ceres Oct 16, 2015 $19.99N/A (N/A/74%)0 .. 20,0000%00:00 (00:00)
469 Antisquad May 22, 2014 $5.99N/A (N/A)50,000 .. 100,0000%00:00 (00:00)
470 Super Helmets on Fire DX Ultra Edition Plus Alpha Feb 15, 2016 $0.99N/A (N/A)0 .. 20,0000%00:00 (00:00)
471 Merchants of Kaidan Nov 10, 2014 $14.99N/A (N/A)100,000 .. 200,0000%00:00 (00:00)
472 Armada 2526 Gold Edition Feb 28, 2013 $19.99N/A (N/A/66%)50,000 .. 100,0000%00:00 (00:00)
473 Prospekt Feb 18, 2016 $9.99N/A (N/A)20,000 .. 50,0007.69%00:20 (00:06)
474 Wanderlust Adventures Aug 10, 2015 $9.99N/A (N/A)20,000 .. 50,0000%00:00 (00:00)
475 VR Journey Dec 15, 2016 $0.5N/A (N/A)20,000 .. 50,0000.79%00:04 (00:01)
476 Heavy Fire: Afghanistan Aug 15, 2014 $2.99N/A (N/A)20,000 .. 50,0000%00:00 (00:00)
477 Adventure World Aug 2, 2016 $4.99N/A (N/A)0 .. 20,0000%00:00 (00:00)
478 Unearthed: Trail of Ibn Battuta - Episode 1 - Gold Edition Jan 3, 2014 $4.9912% (58%)20,000 .. 50,0000%00:00 (00:00)
479 Prophour23 Oct 22, 2014 $9.99N/A (N/A)20,000 .. 50,0000%00:00 (00:00)
480 Check vs Mate Aug 16, 2012 $19.99N/A (N/A/69%)0 .. 20,0000%00:00 (00:00)
481 Cemetery Warrior 3 Feb 3, 2017 $0.99N/A (N/A)50,000 .. 100,0000%00:00 (00:00)
482 Colonial Conquest Jul 28, 2015 $9.99N/A (N/A)0 .. 20,0000%00:00 (00:00)
483 Sir! I'd Like To Report A Bug! Oct 19, 2015 $1.99N/A (N/A)0 .. 20,0000%00:00 (00:00)
484 Gates of Horizon Dec 18, 2014 $9.99N/A (N/A)0 .. 20,0000%00:00 (00:00)
485 Assault on Arnhem Mar 11, 2016 $9.99N/A (N/A)0 .. 20,0000%00:00 (00:00)
486 Rise of Venice Sep 27, 2013 $19.99N/A (N/A/66%)50,000 .. 100,0002.86%33:26 (11:08)
487 Woodle Tree 2: Worlds Sep 16, 2016 $3.99N/A (N/A)20,000 .. 50,0001.92%00:01 (00:00)
488 Horizon Feb 6, 2014 $29.9910% (56%)50,000 .. 100,0000%00:00 (00:00)
489 Abalone Apr 23, 2014 $4.99N/A (N/A)0 .. 20,0000%00:00 (00:00)
490 reconquest Dec 16, 2016 $11.9910% (56%)0 .. 20,0000%00:00 (00:00)
491 Delve Deeper Sep 24, 2010 $4.9910% (56%)50,000 .. 100,0000%00:00 (00:00)
492 Defence to death May 11, 2017 $1.99N/A (N/A)50,000 .. 100,0000%00:00 (00:00)
493 Gnumz: Masters of Defense Dec 21, 2015 $4.99N/A (N/A)20,000 .. 50,0001.3%02:45 (02:11)
494 Pain Train Jan 11, 2017 $0.99N/A (N/A)20,000 .. 50,0000%00:00 (00:00)
495 BC Kings Jun 16, 2009 $4.99N/A (N/A)20,000 .. 50,0000%00:00 (00:00)
496 Tic-Toc-Tower Sep 28, 2015 $2.99N/A (N/A)0 .. 20,0000%00:00 (00:00)
497 Wickland Feb 6, 2015 $0.99N/A (N/A)100,000 .. 200,0000%00:00 (00:00)
498 Nightside Aug 6, 2015 $9.99N/A (N/A)20,000 .. 50,0000%00:00 (00:00)
499 Armada 2526 Apr 8, 2011 $14.99N/A (N/A/66%)20,000 .. 50,0000%00:00 (00:00)
500 Urja Jan 9, 2015 $9.99N/A (N/A)20,000 .. 50,0000%00:00 (00:00)
501 Smugglers 5 Apr 11, 2014 $9.99N/A (N/A)20,000 .. 50,0000%00:00 (00:00)
502 The Settlers 7: Paths to a Kingdom: Deluxe Gold Edition Mar 10, 2011 $19.99N/A (N/A/79%)100,000 .. 200,0000%00:00 (00:00)
503 Aegis Oct 6, 2016 $2.99N/A (N/A)0 .. 20,0000%00:00 (00:00)
504 RESCUE 2: Everyday Heroes Jun 3, 2015 $19.99N/A (N/A)20,000 .. 50,0000%00:00 (00:00)
505 Story Of the Survivor Feb 16, 2016 $4.99N/A (N/A)50,000 .. 100,0000%00:00 (00:00)
506 The Stalin Subway Sep 19, 2014 $3.999% (53%)20,000 .. 50,0000%00:00 (00:00)
507 Royal Bounty HD Aug 10, 2015 $2.99N/A (N/A)0 .. 20,0000%00:00 (00:00)
508 Scapeland Mar 31, 2016 $3.99N/A (N/A)0 .. 20,0000%00:00 (00:00)
509 Biodrone Battle Jul 16, 2015 $1.99N/A (N/A)100,000 .. 200,0000%00:00 (00:00)
510 MDK2 HD Jul 30, 2012 $14.99N/A (N/A/73%)0 .. 20,0000%00:00 (00:00)
511 Meridian: New World Sep 26, 2014 $6.99N/A (N/A/43%)50,000 .. 100,0000%00:00 (00:00)
512 Crusaders: Thy Kingdom Come Oct 8, 2009 $9.99N/A (N/A)20,000 .. 50,0000%00:00 (00:00)
513 Marvel: Ultimate Alliance 2 Jul 26, 2016 $39.99N/A (N/A)0 .. 20,0000%00:00 (00:00)
514 The Campaign Series: Fall Weiss May 30, 2014 $14.99N/A (N/A)20,000 .. 50,0002%00:01 (00:00)
515 Dusty Revenge:Co-Op Edition Feb 17, 2014 $14.99N/A (N/A)100,000 .. 200,0001.27%00:03 (00:01)
516 Guncraft Aug 9, 2013 $14.99N/A (N/A/73%)100,000 .. 200,0000%00:00 (00:00)
517 MinosMaze - The Minotaur's Labyrinth May 1, 2017 $4.99N/A (N/A)0 .. 20,0000%00:00 (00:00)
518 PeriAreion Feb 19, 2015 $5.99N/A (N/A)0 .. 20,0000%00:00 (00:00)
519 Megamagic: Wizards of the Neon Age Apr 20, 2016 $9.99N/A (N/A/67%)20,000 .. 50,0003.13%00:52 (00:34)
520 Weather Lord: The Successor's Path May 7, 2015 $4.99N/A (N/A)0 .. 20,0000%00:00 (00:00)
521 Kidnapped Aug 4, 2015 $2.99N/A (N/A)100,000 .. 200,0000%00:00 (00:00)
522 HitBox Jan 30, 2017 Free7% (50%)0 .. 20,0000%00:00 (00:00)
523 Toy Soldiers: War Chest Aug 12, 2015 $3.747% (50%/60%)0 .. 20,0000%00:00 (00:00)
524 Albedo: Eyes from Outer Space Apr 10, 2015 $14.997% (50%/66%)50,000 .. 100,0000%00:00 (00:00)
525 Odd||Even Apr 6, 2016 $0.99N/A (N/A)20,000 .. 50,0000%00:00 (00:00)
526 No Pineapple Left Behind Feb 18, 2016 $9.99N/A (N/A/59%)0 .. 20,0000%00:00 (00:00)
527 Z Steel Soldiers Aug 1, 2014 $12.99N/A (N/A)50,000 .. 100,0000%00:00 (00:00)
528 Warhammer: Arcane Magic Mar 3, 2016 $3.997% (49%)0 .. 20,0000%00:00 (00:00)
529 Meridian: Squad 22 Aug 11, 2016 $14.99N/A (N/A)0 .. 20,0000%00:00 (00:00)
530 Rubber and Lead Sep 4, 2015 $4.99N/A (N/A)20,000 .. 50,0000%00:00 (00:00)
531 Aggression: Europe Under Fire Apr 9, 2014 $9.99N/A (N/A)0 .. 20,0000%00:00 (00:00)
532 Synonymy Mar 5, 2015 $1.99N/A (N/A)0 .. 20,0000%00:00 (00:00)
533 Star Traders: 4X Empires Dec 16, 2014 $9.99N/A (N/A)0 .. 20,0000%00:00 (00:00)
534 Crossfire: Dungeons May 21, 2015 $3.99N/A (N/A)0 .. 20,0000%00:00 (00:00)
535 Chronostorm: Siberian Border Nov 20, 2015 $0.99N/A (N/A)0 .. 20,0000%00:00 (00:00)
536 ALONE IN SPACE Feb 22, 2016 $9.996% (47%)0 .. 20,0000%00:00 (00:00)
537 Hell Nov 13, 2014 $29.99N/A (N/A)0 .. 20,0000%00:00 (00:00)
538 Disposable Heroes Mar 22, 2016 $4.99N/A (N/A)0 .. 20,0002.56%02:04 (00:41)
539 Blasting Agent: Ultimate Edition Aug 17, 2016 $2.99N/A (N/A)0 .. 20,0004.76%04:49 (01:36)
540 Hero Generations Apr 10, 2015 $5.99N/A (N/A)20,000 .. 50,0000%00:00 (00:00)
541 World War 2: Time of Wrath Jun 6, 2014 $4.99N/A (N/A)20,000 .. 50,0000%00:00 (00:00)
542 Commander: Conquest of the Americas Jul 30, 2010 $9.99N/A (N/A/68%)50,000 .. 100,0000%00:00 (00:00)
543 The Stalin Subway: Red Veil Oct 24, 2014 $2.99N/A (N/A)20,000 .. 50,0000%00:00 (00:00)
544 Magic Quest May 6, 2016 $1.99N/A (N/A)50,000 .. 100,0000%00:00 (00:00)
545 Castle Werewolf 3D Feb 7, 2017 $2.99N/A (N/A)50,000 .. 100,00011.83%04:26 (04:34)
546 The Bluecoats: North vs South Feb 2, 2015 $4.99N/A (N/A)20,000 .. 50,0000%00:00 (00:00)
547 Carrier Command: Gaea Mission Sep 28, 2012 $32.99N/A (N/A/60%)200,000 .. 500,0000%00:00 (00:00)
548 Redemption: Saints And Sinners Nov 18, 2016 $0.99N/A (N/A)50,000 .. 100,0000%00:00 (00:00)
549 Impire Feb 14, 2013 $19.995% (44%/45%)100,000 .. 200,0000%00:00 (00:00)
550 Vendetta - Curse of Raven's Cry Nov 20, 2015 $29.99N/A (N/A)0 .. 20,0000%00:00 (00:00)
551 DUNGEONS - Steam Special Edition Feb 10, 2011 $9.99N/A (N/A/65%)200,000 .. 500,0000%00:00 (00:00)
552 Pride of Nations Jun 7, 2011 $19.99N/A (N/A/70%)20,000 .. 50,0000%00:00 (00:00)
553 Skyward Collapse May 23, 2013 $4.99N/A (N/A/64%)100,000 .. 200,0000%00:00 (00:00)
554 Island Defense Jul 23, 2015 $1.99N/A (N/A)50,000 .. 100,0000%00:00 (00:00)
555 Heavy Fire: Shattered Spear Oct 23, 2015 $3.99N/A (N/A)0 .. 20,0000%00:00 (00:00)
556 The Entente Gold Jun 16, 2014 $1.99N/A (N/A)50,000 .. 100,0000%00:00 (00:00)
557 Rulers of Nations Jul 16, 2014 $19.99N/A (N/A/63%)0 .. 20,0000%00:00 (00:00)
558 Sword of the Stars II: Enhanced Edition Nov 30, 2012 $19.99N/A (N/A/65%)100,000 .. 200,0000%00:00 (00:00)
559 Devils & Demons Oct 6, 2015 $9.99N/A (N/A)20,000 .. 50,0000%00:00 (00:00)
560 Samudai Feb 9, 2015 $2.99N/A (N/A)20,000 .. 50,0000%00:00 (00:00)
561 Nux Aug 15, 2014 $6.99N/A (N/A)200,000 .. 500,0000.28%04:03 (01:21)
562 Burstfire Sep 24, 2015 N/AN/A (N/A)50,000 .. 100,0000%00:00 (00:00)
563 Hydraulic Empire Jul 31, 2015 $7.99N/A (N/A)0 .. 20,0000%00:00 (00:00)
564 Infection: Humanity's Last Gasp May 26, 2016 $9.99N/A (N/A)0 .. 20,0000%00:00 (00:00)
565 Control Craft 2 Feb 15, 2016 $2.99N/A (N/A)0 .. 20,0008.11%03:29 (02:57)
566 Lost in Paradise Aug 20, 2015 $2.99N/A (N/A)20,000 .. 50,0000%00:00 (00:00)
567 Pain Train 2 Mar 16, 2017 $6.99N/A (N/A)0 .. 20,0003.7%04:43 (01:34)
568 The Kings' Crusade Oct 8, 2010 $9.99N/A (N/A/71%)50,000 .. 100,0000%00:00 (00:00)
569 R.I.P.D.: The Game Jul 16, 2013 $9.99N/A (N/A)20,000 .. 50,0002.5%05:16 (01:45)
570 Strategic War in Europe Mar 21, 2014 $14.99N/A (N/A)20,000 .. 50,0000%00:00 (00:00)
571 Dead But Alive! Southern England Oct 2, 2015 $14.99N/A (N/A)0 .. 20,0000%00:00 (00:00)
572 Gratuitous Space Battles 2 Apr 16, 2015 $9.99N/A (N/A)20,000 .. 50,0000%00:00 (00:00)
573 Wave of Darkness Nov 5, 2015 $29.99N/A (N/A)0 .. 20,0000%00:00 (00:00)
574 Dark Matter Oct 17, 2013 $9.99N/A (N/A)20,000 .. 50,0000%00:00 (00:00)
575 Zombie Apocalypse: Escape The Undead City Jun 17, 2016 $0.5N/A (N/A)0 .. 20,0000%00:00 (00:00)
576 Dungeons - The Dark Lord Sep 27, 2011 $19.99N/A (N/A/72%)100,000 .. 200,0000%00:00 (00:00)
577 Mechs & Mercs: Black Talons Jan 9, 2015 $9.99N/A (N/A)0 .. 20,0000%00:00 (00:00)
578 Risk Jun 10, 2013 $9.99N/A (N/A)20,000 .. 50,0000%00:00 (00:00)
579 Kick-Ass 2 Aug 15, 2014 $19.99N/A (N/A)0 .. 20,0000%00:00 (00:00)
580 Stellar Impact Apr 12, 2012 $9.99N/A (N/A/74%)50,000 .. 100,0000%00:00 (00:00)
581 Tiamat X May 29, 2015 $1.99N/A (N/A)50,000 .. 100,0000%00:00 (00:00)
582 Fallen: A2P Protocol Aug 14, 2015 $9.99N/A (N/A)20,000 .. 50,0000%00:00 (00:00)
583 Blue Sheep Mar 31, 2016 $1.99N/A (N/A)0 .. 20,0000%00:00 (00:00)
584 Knight Adventure Oct 15, 2015 $0.99N/A (N/A)20,000 .. 50,00015.89%04:09 (04:31)
585 Urban Empire Jan 20, 2017 $29.992% (35%/62%)50,000 .. 100,0000%00:00 (00:00)
586 Arma Tactics Oct 1, 2013 $8.99N/A (N/A/47%)200,000 .. 500,0000%00:00 (00:00)
587 CTU: Counter Terrorism Unit Apr 22, 2016 $14.99N/A (N/A)0 .. 20,0000%00:00 (00:00)
588 Sim Junta Aug 18, 2015 $0.99N/A (N/A)0 .. 20,0000%00:00 (00:00)
589 Into the Void Dec 4, 2015 $4.99N/A (N/A)20,000 .. 50,0000%00:00 (00:00)
590 Ranger of the jungle Jul 18, 2016 $3.99N/A (N/A)0 .. 20,0000%00:00 (00:00)
591 Shadows of War Jan 2, 2015 $2.99N/A (N/A)20,000 .. 50,0000%00:00 (00:00)
592 Jagged Alliance Flashback Oct 21, 2014 $19.992% (33%)20,000 .. 50,0000%00:00 (00:00)
593 Disciples III - Resurrection Oct 11, 2011 $14.99N/A (N/A/63%)100,000 .. 200,0000%00:00 (00:00)
594 Evopollution Apr 23, 2014 $4.992% (31%)20,000 .. 50,0000%00:00 (00:00)
595 - Arcane RERaise - Apr 4, 2017 $2.99N/A (N/A)100,000 .. 200,00015.74%03:29 (03:53)
596 Robotex Nov 19, 2014 $4.99N/A (N/A)100,000 .. 200,0000%00:00 (00:00)
597 Ground Pounders Jul 15, 2014 $4.99N/A (N/A)0 .. 20,0000%00:00 (00:00)
598 Psichodelya Aug 8, 2014 $1.99N/A (N/A)50,000 .. 100,0000.61%01:05 (00:21)
599 Zombie Zoeds May 20, 2015 $0.49N/A (N/A)200,000 .. 500,0000.28%04:29 (01:29)
600 Ku: Shroud of the Morrigan Mar 17, 2014 $4.99N/A (N/A)20,000 .. 50,0000%00:00 (00:00)
601 Tank Operations: European Campaign Nov 22, 2013 $14.99N/A (N/A)50,000 .. 100,0000%00:00 (00:00)
602 Power of Defense Aug 4, 2010 $9.99N/A (N/A)0 .. 20,0000%00:00 (00:00)
603 Defenders of Time Nov 4, 2014 N/AN/A (N/A/55%)0 .. 20,0000%00:00 (00:00)
604 A Game of Thrones - Genesis Sep 28, 2011 $9.99N/A (N/A)200,000 .. 500,0000%00:00 (00:00)
605 Solar Shifter EX Sep 11, 2015 $4.99N/A (N/A)20,000 .. 50,0000%00:00 (00:00)
606 Hard Truck Apocalypse: Arcade / Ex Machina: Arcade Mar 14, 2014 $0.74N/A (N/A)20,000 .. 50,0000%00:00 (00:00)
607 Gridberd Sep 7, 2015 $6.99N/A (N/A)200,000 .. 500,0000%00:00 (00:00)
608 Zombies on a Plane Mar 25, 2016 $4.99N/A (N/A)0 .. 20,0000%00:00 (00:00)
609 APOX Jan 20, 2011 $14.991% (24%/48%)50,000 .. 100,0000%00:00 (00:00)
610 The Asskickers-Steam Edition Feb 6, 2015 $9.99N/A (N/A)0 .. 20,0000%00:00 (00:00)
611 Elite vs. Freedom May 31, 2016 $4.99N/A (N/A)0 .. 20,0000%00:00 (00:00)
612 One Star Apr 17, 2017 $2.99N/A (N/A)50,000 .. 100,0000%00:00 (00:00)
613 Lords of the Black Sun Sep 12, 2014 $29.99N/A (N/A)20,000 .. 50,0000%00:00 (00:00)
614 Human Extinction Simulator Jan 21, 2015 $19.99N/A (N/A)0 .. 20,0000%00:00 (00:00)
615 Gemini Wars Nov 2, 2012 $14.99N/A (N/A/53%)20,000 .. 50,0000%00:00 (00:00)
616 Tryst Sep 14, 2012 $14.99N/A (N/A/50%)0 .. 20,0000%00:00 (00:00)
617 Prison Tycoon 3: Lockdown Jan 29, 2008 $9.99N/A (N/A)20,000 .. 50,0000%00:00 (00:00)
618 Once Bitten, Twice Dead! Jul 7, 2015 $4.99N/A (N/A)20,000 .. 50,0000%00:00 (00:00)
619 Citadels Jul 25, 2013 $14.99N/A (N/A/20%)20,000 .. 50,0000%00:00 (00:00)
620 Star Project Aug 4, 2016 $1.99N/A (N/A)100,000 .. 200,0000.49%04:21 (01:27)
621 Magnetic By Nature Nov 10, 2014 $9.99N/A (N/A)20,000 .. 50,0000%00:00 (00:00)
622 Bloodbath Jun 16, 2014 $14.99N/A (N/A)0 .. 20,0000%00:00 (00:00)

Owners of this game also own:

Access restricted.

This feature is only available to users with special access rights. Sorry.

If you want to proceed, you need to register or log in first and then back Steam Spy on Patreon. Look for Indie or Pro pledge.

Don't forget to use the same email as on Steam Spy!

Playtime distribution:

Access restricted.

This feature is only available to users with special access rights. Sorry.

If you want to proceed, you need to register or log in first and then back Steam Spy on Patreon. Look for Indie or Pro pledge.

Don't forget to use the same email as on Steam Spy!

Playtime (2 weeks):

Access restricted.

This feature is only available to users with special access rights. Sorry.

If you want to proceed, you need to register or log in first and then back Steam Spy on Patreon. Look for Indie or Pro pledge.

Don't forget to use the same email as on Steam Spy!

User reviews:

Login required.

Please register or log in to see this information.